User: anonymous   Login
Location: Ajisawe
(8.4333°N, 4.3833°E)
Time: 11:02:20
(UTC+00:00)
Language:

Transit 4A - Orbit

View from above orbital plane
View from above orbital plane
View from above satellite
View from above satellite

Ground track
Ground track

The orbit data is extracted from the following two-line orbital elements,

1 00116U 61015A   21107.65885144 -.00000034  00000-0  33148-4 0  9994
2 00116  66.8099 184.5348 0072894 160.6954 199.6913 13.91787875 34148
Epoch (UTC): 17 April 2021 15:48:44
Eccentricity: 0.0072894
inclination: 66.8099°
perigee height: 869 km
apogee height: 975 km
right ascension of ascending node: 184.5348°
argument of perigee: 160.6954°
revolutions per day: 13.91787875
mean anomaly at epoch: 199.6913°
orbit number at epoch: 3414

The dashed part of the orbit path shows where the satellite is in the earth's shadow,  

DLR